Weather in Yeral

Russia / Chelyabinsk Oblast     55°01′32″N   57°55′31″E
temp.,
°C
wind,
m/s
gust,
m/s
humid.,
%
clouds,
%
prec.,
mm/h
press.,
hPa
HPBL,
m
14 may, fri
fri1423:00+17sse11535 0.0 102611
02:00+15s11580 0.0 102611
05:00+14sse11620 0.0 102711
08:00+18ssw11520 0.0 1027129
11:00+24wnw21390 0.0 1026704
14:00+26nw23335 0.0 10252121
17:00+26wnw54340 0.0 10242040
20:00+21w34540 0.0 102461
15 may, sat
sat1523:00+16s23594 0.0 102518
02:00+15s225621 0.0 102511
05:00+14s225741 0.0 102511
08:00+19ssw2351100 0.0 1025137
11:00+25wsw46335 0.0 10241180
14:00+27w573011 0.0 10231707
17:00+26w5635100 0.0 10231697
20:00+22wsw335097 0.0 102239
16 may, sun
sun1623:00+18sw335725 0.0 102219
02:00+16ssw226025 0.0 102211
05:00+15s22655 0.0 102311
08:00+20ssw225312 0.0 1023131
11:00+26w343335 0.0 10221343
14:00+28w46285 0.0 10222575
17:00+28w67305 0.0 10212248
20:00+22wsw22490 0.0 102023
17 may, mon
mon1723:00+18sse22570 0.0 102112
02:00+16sse22580 0.0 102111
05:00+16s22595 0.0 102111
08:00+21ssw25525 0.0 1021194
11:00+26wsw453614 0.0 1020901
14:00+28w563044 0.0 10192993
17:00+27w5634100 0.0 10183254
20:00+23wsw235290 0.0 101835
18 may, tue
tue1823:00+17sw226796 0.1 101920
02:00+16sw2267100 0.0 101911
05:00+14sw2279100 0.5 101911
08:00+19wsw136213 0.2 1019179
11:00+24wnw354842 0.4 1018795
14:00+27wnw583869 0.0 10172848
17:00+22nnw5955100 0.4 1017337
20:00+18sse33845 1.5 101899